Location: Peterborough
(44.3091°N, 78.3197°W)
Time: 00:13:33
(UTC-04:00)

SR - Pass Details

Date: 25 March 2023
Orbit: 581 x 867 km, 66.7° (Epoch: 02 June)

Event Time Altitude Azimuth Distance (km) Brightness Sun altitude
Rises 02:19:34 0° 172° (S) 3,033 - -42.0°
Reaches altitude 10° 02:22:28 10° 156° (SSE) 2,069 - -41.9°
Maximum altitude 02:25:46 19° 110° (ESE) 1,491 - -41.6°
Drops below altitude 10° 02:28:57 10° 64° (ENE) 1,976 - -41.4°
Exits shadow 02:30:12 - 54° (NE) 2,362 ? -41.3°
Sets 02:31:38 0° 47° (NE) 2,852 ? -41.2°
